Independence, KS

9:31 AM CST on February 08, 2016 (GMT -0600)
Independence Municipal

Weather History for KIDP - November, 2013

Change the Weather History Date:

Saturday, November 23, 2013

  Actual Average (KCFV) Record (KCFV)
Temperature  
Mean Temperature 29 °F -  
Max Temperature 35 °F 54 °F 75 °F (2005)
Min Temperature 23 °F 33 °F 16 °F (2007)
Degree Days  
Heating Degree Days 36    
Moisture  
Dew Point 19 °F    
Average Humidity 63    
Maximum Humidity 80    
Minimum Humidity 48    
Precipitation  
Precipitation 0.00 in - - ()
Sea Level Pressure  
Sea Level Pressure 30.68 in    
Wind  
Wind Speed 13 mph (NNE)    
Max Wind Speed 22 mph    
Max Gust Speed 26 mph    
Visibility 10 miles    
Events      
Averages and records for this station are not official NWS values.
T = Trace of Precipitation, MM = Missing Value Source: NWS Daily Summary

Daily Weather History Graph

Daily Weather History Graph

Search for Another Location

Airport or City:

Trip Planner

Search our weather history database for the weather conditions in past years. The results will help you decide how hot, cold, wet, or windy it might be!

Date:

Astronomy

Nov. 23, 2013 Rise Set
Actual Time 7:10 AM CST 5:08 PM CST
Civil Twilight 6:42 AM CST 5:36 PM CST
Nautical Twilight 6:10 AM CST 6:08 PM CST
Astronomical Twilight 5:39 AM CST 6:39 PM CST
Moon 10:34 PM CST (11/23) 11:30 AM CST (11/23)
Length of Visible Light 10h 54m
Length of Day
9h 57m
Waning Gibbous, 69% of the Moon is Illuminated
Nov 23
Waning Gibbous
Nov 25
Last Quarter
Dec 2
New
Dec 9
First Quarter
Dec 17
Full

Hourly Weather History & Observations

Time (CST) Temp. Windchill Dew Point Humidity Pressure Visibility Wind Dir Wind Speed Gust Speed Precip Events Conditions
12:15 AM 30.2 °F 20.2 °F 24.8 °F 80% 30.59 in 10.0 mi North 12.7 mph 19.6 mph N/A   Mostly Cloudy
12:35 AM 30.2 °F 19.3 °F 24.8 °F 80% 30.59 in 10.0 mi North 15.0 mph - N/A   Mostly Cloudy
12:55 AM 30.2 °F 19.3 °F 24.8 °F 80% 30.59 in 10.0 mi North 15.0 mph - N/A   Scattered Clouds
1:15 AM 30.2 °F 20.2 °F 24.8 °F 80% 30.59 in 10.0 mi North 12.7 mph - N/A   Clear
1:35 AM 30.2 °F 21.3 °F 24.8 °F 80% 30.59 in 10.0 mi North 10.4 mph - N/A   Mostly Cloudy
1:55 AM 30.2 °F 20.8 °F 24.8 °F 80% 30.59 in 10.0 mi North 11.5 mph - N/A   Mostly Cloudy
2:15 AM 30.2 °F 20.8 °F 23.0 °F 75% 30.58 in 10.0 mi NNE 11.5 mph - N/A   Scattered Clouds
2:35 AM 30.2 °F 21.9 °F 23.0 °F 75% 30.61 in 10.0 mi North 9.2 mph - N/A   Scattered Clouds
2:55 AM 30.2 °F 21.9 °F 23.0 °F 75% 30.60 in 10.0 mi North 9.2 mph - N/A   Clear
3:15 AM 30.2 °F 21.3 °F 23.0 °F 75% 30.60 in 10.0 mi North 10.4 mph - N/A   Mostly Cloudy
3:35 AM 30.2 °F 23.4 °F 23.0 °F 75% 30.60 in 10.0 mi North 6.9 mph - N/A   Overcast
3:55 AM 30.2 °F 21.9 °F 23.0 °F 75% 30.60 in 10.0 mi North 9.2 mph - N/A   Overcast
4:15 AM 30.2 °F 20.8 °F 23.0 °F 75% 30.60 in 10.0 mi North 11.5 mph - N/A   Overcast
4:35 AM 30.2 °F 20.2 °F 23.0 °F 75% 30.61 in 10.0 mi North 12.7 mph - N/A   Overcast
4:55 AM 32.0 °F 23.6 °F 23.0 °F 69% 30.63 in 10.0 mi North 10.4 mph - N/A   Overcast
5:15 AM 30.2 °F 20.8 °F 21.2 °F 69% 30.63 in 10.0 mi North 11.5 mph 16.1 mph N/A   Overcast
5:35 AM 30.2 °F 20.2 °F 21.2 °F 69% 30.63 in 10.0 mi North 12.7 mph - N/A   Mostly Cloudy
5:55 AM 30.2 °F 21.3 °F 21.2 °F 69% 30.64 in 10.0 mi North 10.4 mph - N/A   Mostly Cloudy
6:15 AM 30.2 °F 20.8 °F 21.2 °F 69% 30.64 in 10.0 mi North 11.5 mph - N/A   Mostly Cloudy
6:35 AM 30.2 °F 20.8 °F 21.2 °F 69% 30.65 in 10.0 mi North 11.5 mph - N/A   Overcast
6:55 AM 30.2 °F 20.8 °F 19.4 °F 64% 30.65 in 10.0 mi North 11.5 mph - N/A   Overcast
7:15 AM 32.0 °F 23.6 °F 19.4 °F 60% 30.67 in 10.0 mi North 10.4 mph - N/A   Overcast
7:35 AM 32.0 °F 22.5 °F 19.4 °F 60% 30.67 in 10.0 mi North 12.7 mph - N/A   Mostly Cloudy
7:55 AM 32.0 °F 23.0 °F 17.6 °F 55% 30.68 in 10.0 mi North 11.5 mph - N/A   Overcast
8:15 AM 32.0 °F 22.5 °F 17.6 °F 55% 30.68 in 10.0 mi North 12.7 mph - N/A   Overcast
8:35 AM 32.0 °F 22.1 °F 19.4 °F 60% 30.68 in 10.0 mi North 13.8 mph - N/A   Mostly Cloudy
8:55 AM 32.0 °F 22.5 °F 19.4 °F 60% 30.69 in 10.0 mi North 12.7 mph - N/A   Mostly Cloudy
9:15 AM 32.0 °F 23.0 °F 19.4 °F 60% 30.69 in 10.0 mi North 11.5 mph - N/A   Scattered Clouds
9:35 AM 32.0 °F 21.6 °F 19.4 °F 60% 30.69 in 10.0 mi North 15.0 mph - N/A   Mostly Cloudy
9:55 AM 32.0 °F 22.1 °F 19.4 °F 60% 30.70 in 10.0 mi North 13.8 mph - N/A   Overcast
10:15 AM 32.0 °F 23.0 °F 21.2 °F 64% 30.71 in 10.0 mi North 11.5 mph - N/A   Overcast
10:35 AM 32.0 °F 22.1 °F 21.2 °F 64% 30.72 in 10.0 mi North 13.8 mph 20.7 mph N/A   Overcast
10:55 AM 33.8 °F 23.9 °F 21.2 °F 60% 30.72 in 10.0 mi North 15.0 mph - N/A   Overcast
11:15 AM 33.8 °F 23.2 °F 23.0 °F 65% 30.72 in 10.0 mi North 17.3 mph 21.9 mph N/A   Overcast
11:35 AM 33.8 °F 22.8 °F 21.2 °F 60% 30.72 in 10.0 mi North 18.4 mph 24.2 mph N/A   Mostly Cloudy
11:55 AM 33.8 °F 23.9 °F 21.2 °F 60% 30.71 in 10.0 mi NNE 15.0 mph - N/A   Scattered Clouds
12:15 PM 35.6 °F 25.2 °F 21.2 °F 56% 30.70 in 10.0 mi NNE 18.4 mph - N/A   Clear
12:35 PM 35.6 °F 24.8 °F 21.2 °F 56% 30.70 in 10.0 mi North 19.6 mph 25.3 mph N/A   Clear
12:55 PM 35.6 °F 24.5 °F 21.2 °F 56% 30.69 in 10.0 mi North 20.7 mph 25.3 mph N/A   Clear
1:15 PM 35.6 °F 24.8 °F 23.0 °F 60% 30.69 in 10.0 mi North 19.6 mph - N/A   Clear
1:35 PM 35.6 °F 24.2 °F 21.2 °F 56% 30.69 in 10.0 mi North 21.9 mph 25.3 mph N/A   Clear
1:55 PM 35.6 °F 25.5 °F 23.0 °F 60% 30.68 in 10.0 mi NNE 17.3 mph - N/A   Clear
2:15 PM 35.6 °F 25.2 °F 21.2 °F 56% 30.68 in 10.0 mi North 18.4 mph 23.0 mph N/A   Clear
2:35 PM 35.6 °F 25.2 °F 19.4 °F 52% 30.67 in 10.0 mi North 18.4 mph - N/A   Clear
2:55 PM 33.8 °F 22.8 °F 19.4 °F 56% 30.68 in 10.0 mi North 18.4 mph 26.5 mph N/A   Clear
3:15 PM 33.8 °F 21.9 °F 21.2 °F 60% 30.68 in 10.0 mi North 21.9 mph - N/A   Clear
3:35 PM 33.8 °F 21.9 °F 19.4 °F 56% 30.69 in 10.0 mi North 21.9 mph - N/A   Clear
3:55 PM 33.8 °F 23.5 °F 21.2 °F 60% 30.70 in 10.0 mi North 16.1 mph - N/A   Clear
4:15 PM 32.0 °F 20.1 °F 17.6 °F 55% 30.70 in 10.0 mi North 19.6 mph 24.2 mph N/A   Clear
4:35 PM 32.0 °F 20.5 °F 14.0 °F 48% 30.70 in 10.0 mi NNE 18.4 mph 25.3 mph N/A   Clear
4:55 PM 32.0 °F 21.2 °F 14.0 °F 48% 30.71 in 10.0 mi North 16.1 mph 21.9 mph N/A   Clear
5:15 PM 30.2 °F 19.3 °F 14.0 °F 51% 30.71 in 10.0 mi NNE 15.0 mph 20.7 mph N/A   Clear
5:35 PM 30.2 °F 19.8 °F 14.0 °F 51% 30.71 in 10.0 mi NNE 13.8 mph 23.0 mph N/A   Clear
5:55 PM 28.4 °F 18.0 °F 17.6 °F 64% 30.72 in 10.0 mi North 12.7 mph - N/A   Clear
6:15 PM 28.4 °F 18.0 °F 14.0 °F 55% 30.72 in 10.0 mi North 12.7 mph - N/A   Clear
6:35 PM 28.4 °F 18.5 °F 15.8 °F 59% 30.72 in 10.0 mi North 11.5 mph 16.1 mph N/A   Clear
6:55 PM 28.4 °F 16.6 °F 14.0 °F 55% 30.73 in 10.0 mi North 16.1 mph 20.7 mph N/A   Clear
7:15 PM 28.4 °F 16.6 °F 14.0 °F 55% 30.72 in 10.0 mi NNE 16.1 mph 19.6 mph N/A   Clear
7:35 PM 28.4 °F 17.0 °F 14.0 °F 55% 30.73 in 10.0 mi NNE 15.0 mph 20.7 mph N/A   Clear
7:55 PM 28.4 °F 17.5 °F 14.0 °F 55% 30.73 in 10.0 mi NNE 13.8 mph - N/A   Clear
8:15 PM 26.6 °F 16.2 °F 14.0 °F 59% 30.73 in 10.0 mi NNE 11.5 mph - N/A   Clear
8:35 PM 26.6 °F 15.7 °F 14.0 °F 59% 30.72 in 10.0 mi NNE 12.7 mph - N/A   Clear
8:55 PM 26.6 °F 16.2 °F 14.0 °F 59% 30.73 in 10.0 mi NNE 11.5 mph - N/A   Clear
9:15 PM 26.6 °F 15.2 °F 12.2 °F 55% 30.73 in 10.0 mi NNE 13.8 mph - N/A   Clear
9:35 PM 26.6 °F 17.5 °F 14.0 °F 59% 30.73 in 10.0 mi NNE 9.2 mph 17.3 mph N/A   Clear
9:55 PM 26.6 °F 15.7 °F 14.0 °F 59% 30.73 in 10.0 mi NNE 12.7 mph 17.3 mph N/A   Clear
10:15 PM 24.8 °F 14.0 °F 14.0 °F 64% 30.72 in 10.0 mi NNE 11.5 mph - N/A   Clear
10:35 PM 24.8 °F 11.9 °F 12.2 °F 59% 30.71 in 10.0 mi NNE 16.1 mph - N/A   Clear
10:55 PM 24.8 °F 12.4 °F 12.2 °F 59% 30.71 in 10.0 mi NNE 15.0 mph - N/A   Clear
11:15 PM 23.0 °F 10.1 °F 12.2 °F 63% 30.71 in 10.0 mi NNE 15.0 mph - N/A   Clear
11:35 PM 23.0 °F 11.1 °F 12.2 °F 63% 30.71 in 10.0 mi NE 12.7 mph - N/A   Clear
11:55 PM 23.0 °F 11.7 °F 12.2 °F 63% 30.71 in 10.0 mi NE 11.5 mph - N/A   Clear